,,,PA_Meas_PMT16A,,PR_Meas_QMR101_102,,RH_Meas_QMH101,,SR_Meas_QMS101,,TA_Meas_QMH101,,GenWind,,GenWind,
date,time,status,PA,status,PR,status,RH,status,SR,status,TA,status,DirAvg,status,SpdAvg,
2008-10-04, 00:00:05,VALID,1006.21,VALID,0,VALID,93.6292,VALID,0,VALID,23.3921,VALID,17,VALID,0,
2008-10-04, 00:01:05,VALID,1006.19,VALID,0,VALID,93.6216,VALID,0,VALID,23.4134,VALID,17,VALID,0,
2008-10-04, 00:02:05,VALID,1006.18,VALID,0,VALID,93.6064,VALID,0,VALID,23.3921,VALID,17,VALID,0,
2008-10-04, 00:03:05,VALID,1006.17,VALID,0,VALID,93.6521,VALID,0,VALID,23.3727,VALID,17,VALID,0,
2008-10-04, 00:04:05,VALID,1006.16,VALID,0,VALID,93.7208,VALID,0,VALID,23.3921,VALID,17,VALID,0,
2008-10-04, 00:05:05,VALID,1006.17,VALID,0,VALID,93.7361,VALID,0,VALID,23.4134,VALID,17,VALID,0,
2008-10-04, 00:06:05,VALID,1006.11,VALID,0,VALID,93.7589,VALID,0,VALID,23.3921,VALID,17,VALID,0,
2008-10-04, 00:07:05,VALID,1006.1,VALID,0,VALID,93.7513,VALID,0,VALID,23.4134,VALID,17,VALID,0,
2008-10-04, 00:08:05,VALID,1006.05,VALID,0,VALID,93.7284,VALID,0,VALID,23.3921,VALID,17,VALID,0,
2008-10-04, 00:09:05,VALID,1005.99,VALID,0,VALID,93.6979,VALID,0,VALID,23.3727,VALID,17,VALID,0,
2008-10-04, 00:10:05,VALID,1005.98,VALID,0,VALID,93.6445,VALID,0,VALID,23.3727,VALID,17,VALID,0,
2008-10-04, 00:11:05,VALID,1005.94,VALID,0,VALID,93.6903,VALID,0,VALID,23.3727,VALID,17,VALID,0,
2008-10-04, 00:12:05,VALID,1005.94,VALID,0,VALID,93.675,VALID,0,VALID,23.3744,VALID,17,VALID,0,
2008-10-04, 00:13:05,VALID,1005.89,VALID,0,VALID,93.6521,VALID,0,VALID,23.355,VALID,17,VALID,0,
2008-10-04, 00:14:05,VALID,1005.9,VALID,0,VALID,93.6903,VALID,0,VALID,23.3143,VALID,17,VALID,0,
2008-10-04, 00:15:05,VALID,1005.83,VALID,0,VALID,93.7895,VALID,0,VALID,23.3337,VALID,17,VALID,0,
2008-10-04, 00:16:05,VALID,1005.83,VALID,0,VALID,93.8505,VALID,0,VALID,23.3143,VALID,17,VALID,0,
2008-10-04, 00:17:05,VALID,1005.77,VALID,0,VALID,93.8047,VALID,0,VALID,23.2948,VALID,17,VALID,0,
2008-10-04, 00:18:05,VALID,1005.75,VALID,0,VALID,93.6903,VALID,0,VALID,23.2771,VALID,17,VALID,0,
2008-10-04, 00:19:05,VALID,1005.69,VALID,0,VALID,93.6521,VALID,0,VALID,23.2364,VALID,17,VALID,0,
2008-10-04, 00:20:05,VALID,1005.65,VALID,0,VALID,93.675,VALID,0,VALID,23.1957,VALID,17,VALID,0,
2008-10-04, 00:21:05,VALID,1005.62,VALID,0,VALID,93.7055,VALID,0,VALID,23.217,VALID,17,VALID,0,
2008-10-04, 00:22:05,VALID,1005.6,VALID,0,VALID,93.7513,VALID,0,VALID,23.1975,VALID,17,VALID,0,
2008-10-04, 00:23:05,VALID,1005.55,VALID,0,VALID,93.9344,VALID,0,VALID,23.1975,VALID,17,VALID,0.347266,
2008-10-04, 00:24:05,VALID,1005.5,VALID,0,VALID,93.9725,VALID,0,VALID,23.1975,VALID,17,VALID,0.291406,
2008-10-04, 00:25:05,VALID,1005.5,VALID,0,VALID,94.0031,VALID,0,VALID,23.2382,VALID,17,VALID,0.258984,
2008-10-04, 00:26:05,VALID,1005.46,VALID,0,VALID,93.9802,VALID,0,VALID,23.1975,VALID,17,VALID,0.333984,
2008-10-04, 00:27:05,VALID,1005.47,VALID,0,VALID,93.9954,VALID,0,VALID,23.1993,VALID,17,VALID,0.244922,
2008-10-04, 00:28:05,VALID,1005.44,VALID,0,VALID,94.0412,VALID,0,VALID,23.1993,VALID,17,VALID,0.209766,
2008-10-04, 00:29:05,VALID,1005.43,VALID,0,VALID,94.0565,VALID,0,VALID,23.178,VALID,17,VALID,0.329688,
2008-10-04, 00:30:05,VALID,1005.41,VALID,0,VALID,94.087,VALID,0,VALID,23.1798,VALID,17,VALID,0,
2008-10-04, 00:31:05,VALID,1005.38,VALID,0,VALID,94.1175,VALID,0,VALID,23.1798,VALID,17,VALID,0,
2008-10-04, 00:32:05,VALID,1005.36,VALID,0,VALID,94.1251,VALID,0,VALID,23.1603,VALID,17,VALID,0,
2008-10-04, 00:33:05,VALID,1005.32,VALID,0,VALID,94.1328,VALID,0,VALID,23.1391,VALID,17,VALID,0,
2008-10-04, 00:34:05,VALID,1005.29,VALID,0,VALID,94.1404,VALID,0,VALID,23.1603,VALID,17,VALID,0,
2008-10-04, 00:35:05,VALID,1005.27,VALID,0,VALID,94.1175,VALID,0,VALID,23.1603,VALID,17,VALID,0,
2008-10-04, 00:36:05,VALID,1005.21,VALID,0,VALID,94.1251,VALID,0,VALID,23.1002,VALID,17,VALID,0,
2008-10-04, 00:37:05,VALID,1005.16,VALID,0,VALID,94.1022,VALID,0,VALID,23.1214,VALID,17,VALID,0,
2008-10-04, 00:38:05,VALID,1005.16,VALID,0,VALID,94.1328,VALID,0,VALID,23.0807,VALID,17,VALID,0,
2008-10-04, 00:39:05,VALID,1005.11,VALID,0,VALID,94.1175,VALID,0,VALID,23.0613,VALID,17,VALID,0,
2008-10-04, 00:40:05,VALID,1005.1,VALID,0,VALID,94.148,VALID,0,VALID,23.1019,VALID,17,VALID,0,
2008-10-04, 00:41:05,VALID,1005.08,VALID,0,VALID,94.2243,VALID,0,VALID,23.1002,VALID,17,VALID,0,
2008-10-04, 00:42:05,VALID,1005.07,VALID,0,VALID,94.3616,VALID,0,VALID,23.1002,VALID,18,VALID,0,
2008-10-04, 00:43:05,VALID,1005.05,VALID,0,VALID,94.3235,VALID,0,VALID,23.1586,VALID,18,VALID,0,
2008-10-04, 00:44:05,VALID,1005.08,VALID,0,VALID,94.3082,VALID,0,VALID,23.1586,VALID,19,VALID,0,
2008-10-04, 00:45:05,VALID,1005.07,VALID,0,VALID,94.3616,VALID,0,VALID,23.2187,VALID,78,VALID,0.329688,
2008-10-04, 00:46:05,VALID,1005.06,VALID,0,VALID,94.3235,VALID,0,VALID,23.2559,VALID,78,VALID,0.317187,
2008-10-04, 00:47:05,VALID,1005.04,VALID,0,VALID,94.3235,VALID,0,VALID,23.2948,VALID,78,VALID,0.304688,
2008-10-04, 00:48:05,VALID,1005.03,VALID,0,VALID,94.2777,VALID,0,VALID,23.3337,VALID,78,VALID,0.228125,
2008-10-04, 00:49:05,VALID,1005.07,VALID,0,VALID,94.2014,VALID,0,VALID,23.3532,VALID,74,VALID,0.333984,
2008-10-04, 00:50:05,VALID,1005.07,VALID,0,VALID,94.1099,VALID,0,VALID,23.3921,VALID,68,VALID,0.178516,
2008-10-04, 00:51:05,VALID,1005.1,VALID,0,VALID,94.0031,VALID,0,VALID,23.4116,VALID,68,VALID,0.21875,
2008-10-04, 00:52:05,VALID,1005.12,VALID,0,VALID,93.9115,VALID,0,VALID,23.4116,VALID,62,VALID,0.306641,
2008-10-04, 00:53:05,VALID,1005.12,VALID,0,VALID,93.8734,VALID,0,VALID,23.4523,VALID,64,VALID,0.357031,
2008-10-04, 00:54:05,VALID,1005.15,VALID,0,VALID,93.82,VALID,0.100563,VALID,23.4487,VALID,64,VALID,0.272266,
2008-10-04, 00:55:05,VALID,1005.15,VALID,0,VALID,93.7971,VALID,0.100563,VALID,23.4877,VALID,57,VALID,0.298047,
2008-10-04, 00:56:05,VALID,1005.17,VALID,0,VALID,93.675,VALID,0.100563,VALID,23.5266,VALID,57,VALID,0.192578,
2008-10-04, 00:57:05,VALID,1005.17,VALID,0,VALID,93.553,VALID,0.100563,VALID,23.5071,VALID,57,VALID,0.239844,
2008-10-04, 00:58:05,VALID,1005.13,VALID,0,VALID,93.4538,VALID,0,VALID,23.5478,VALID,57,VALID,0.075,
2008-10-04, 00:59:05,VALID,1005.19,VALID,0,VALID,93.3699,VALID,0.100563,VALID,23.5266,VALID,57,VALID,0.226563,
2008-10-04, 01:00:05,VALID,1005.17,VALID,0,VALID,93.3088,VALID,0.100563,VALID,23.5071,VALID,57,VALID,0.262109,
2008-10-04, 01:01:05,VALID,1005.19,VALID,0,VALID,93.3165,VALID,0.100563,VALID,23.5071,VALID,57,VALID,0.0765625,
2008-10-04, 01:02:05,VALID,1005.19,VALID,0,VALID,93.2631,VALID,0.100563,VALID,23.4877,VALID,57,VALID,0,
2008-10-04, 01:03:05,VALID,1005.14,VALID,0,VALID,93.2631,VALID,0.100563,VALID,23.4877,VALID,57,VALID,0.151953,
2008-10-04, 01:04:05,VALID,1005.16,VALID,0,VALID,93.2859,VALID,0.100563,VALID,23.4877,VALID,57,VALID,0.301562,
2008-10-04, 01:05:05,VALID,1005.17,VALID,0,VALID,93.3012,VALID,0,VALID,23.5071,VALID,57,VALID,0.0511719,
2008-10-04, 01:06:05,VALID,1005.16,VALID,0,VALID,93.3165,VALID,0.100563,VALID,23.4877,VALID,56,VALID,0.479688,
2008-10-04, 01:07:05,VALID,1005.16,VALID,0,VALID,93.3165,VALID,0.100563,VALID,23.5284,VALID,49,VALID,0.335547,
2008-10-04, 01:08:05,VALID,1005.13,VALID,0,VALID,93.3088,VALID,0.100563,VALID,23.5284,VALID,49,VALID,0.351172,
2008-10-04, 01:09:05,VALID,1005.11,VALID,0,VALID,93.3012,VALID,0,VALID,23.5284,VALID,49,VALID,0.480469,
2008-10-04, 01:10:05,VALID,1005.07,VALID,0,VALID,93.202,VALID,0,VALID,23.5496,VALID,49,VALID,0.469922,
2008-10-04, 01:11:05,VALID,1005.04,VALID,0,VALID,93.202,VALID,0,VALID,23.5284,VALID,49,VALID,0.413672,
2008-10-04, 01:12:05,VALID,1005.07,VALID,0,VALID,93.1334,VALID,0,VALID,23.5478,VALID,49,VALID,0.280859,
2008-10-04, 01:13:05,VALID,1005.05,VALID,0,VALID,93.0876,VALID,0,VALID,23.5478,VALID,49,VALID,0.276563,
2008-10-04, 01:14:05,VALID,1005.06,VALID,0,VALID,93.0495,VALID,0,VALID,23.5478,VALID,49,VALID,0.00429688,
2008-10-04, 01:15:05,VALID,1005.04,VALID,0,VALID,93.0647,VALID,0,VALID,23.5478,VALID,58,VALID,0.253906,
2008-10-04, 01:16:05,VALID,1005.06,VALID,0,VALID,93.0952,VALID,0,VALID,23.5673,VALID,58,VALID,0.363672,
2008-10-04, 01:17:05,VALID,1005.02,VALID,0,VALID,93.1029,VALID,0,VALID,23.5885,VALID,58,VALID,0.245312,
2008-10-04, 01:18:05,VALID,1004.99,VALID,0,VALID,93.1029,VALID,0,VALID,23.6275,VALID,58,VALID,0.322656,
2008-10-04, 01:19:05,VALID,1005,VALID,0,VALID,93.0571,VALID,0,VALID,23.6257,VALID,59,VALID,0.245703,
2008-10-04, 01:20:05,VALID,1005.01,VALID,0,VALID,92.9732,VALID,0,VALID,23.6452,VALID,59,VALID,0.233594,
2008-10-04, 01:21:05,VALID,1004.99,VALID,0,VALID,92.8969,VALID,0,VALID,23.6452,VALID,59,VALID,0.317578,
2008-10-04, 01:22:05,VALID,1004.98,VALID,0,VALID,92.8511,VALID,0,VALID,23.6257,VALID,59,VALID,0.273047,
2008-10-04, 01:23:05,VALID,1005,VALID,0,VALID,92.874,VALID,0,VALID,23.6452,VALID,59,VALID,0.210547,
2008-10-04, 01:24:05,VALID,1005.03,VALID,0,VALID,92.8206,VALID,0,VALID,23.6452,VALID,58,VALID,0.285547,
2008-10-04, 01:25:05,VALID,1005.02,VALID,0,VALID,92.7824,VALID,0,VALID,23.6452,VALID,58,VALID,0.253906,
2008-10-04, 01:26:05,VALID,1004.99,VALID,0,VALID,92.7443,VALID,0,VALID,23.6646,VALID,59,VALID,0.346875,
2008-10-04, 01:27:05,VALID,1005.01,VALID,0,VALID,92.6985,VALID,0,VALID,23.6646,VALID,59,VALID,0.193359,
2008-10-04, 01:28:05,VALID,1004.99,VALID,0,VALID,92.7138,VALID,0,VALID,23.6664,VALID,59,VALID,0.0285156,
2008-10-04, 01:29:05,VALID,1004.94,VALID,0,VALID,92.6909,VALID,0,VALID,23.6452,VALID,59,VALID,0.0777344,
2008-10-04, 01:30:05,VALID,1004.93,VALID,0,VALID,92.7367,VALID,0,VALID,23.6664,VALID,59,VALID,0.299219,
2008-10-04, 01:31:05,VALID,1004.91,VALID,0,VALID,92.6604,VALID,0,VALID,23.6452,VALID,59,VALID,0.216406,
2008-10-04, 01:32:05,VALID,1004.87,VALID,0,VALID,92.5993,VALID,0,VALID,23.6239,VALID,59,VALID,0.0777344,
2008-10-04, 01:33:05,VALID,1004.84,VALID,0,VALID,92.5383,VALID,0,VALID,23.6062,VALID,59,VALID,0.174219,
2008-10-04, 01:34:05,VALID,1004.82,VALID,0,VALID,92.5765,VALID,0,VALID,23.5885,VALID,59,VALID,0.0457031,
2008-10-04, 01:35:05,VALID,1004.78,VALID,0,VALID,92.668,VALID,0,VALID,23.5478,VALID,59,VALID,0.116016,
2008-10-04, 01:36:04,VALID,1004.73,VALID,0,VALID,92.7519,VALID,0,VALID,23.5691,VALID,59,VALID,0,
2008-10-04, 01:37:04,VALID,1004.71,VALID,0,VALID,92.7901,VALID,0,VALID,23.5284,VALID,59,VALID,0,
2008-10-04, 01:38:04,VALID,1004.7,VALID,0,VALID,92.813,VALID,0,VALID,23.5302,VALID,59,VALID,0,
2008-10-04, 01:39:04,VALID,1004.7,VALID,0,VALID,92.8587,VALID,0,VALID,23.4718,VALID,59,VALID,0,
2008-10-04, 01:40:04,VALID,1004.69,VALID,0,VALID,92.935,VALID,0,VALID,23.4718,VALID,59,VALID,0.00898437,
2008-10-04, 01:41:04,VALID,1004.67,VALID,0,VALID,92.9503,VALID,0,VALID,23.4328,VALID,59,VALID,0.194922,
2008-10-04, 01:42:04,VALID,1004.66,VALID,0,VALID,93.0647,VALID,0,VALID,23.4116,VALID,60,VALID,0.367969,
2008-10-04, 01:43:04,VALID,1004.63,VALID,0,VALID,93.1868,VALID,0,VALID,23.4328,VALID,60,VALID,0.361328,
2008-10-04, 01:44:04,VALID,1004.65,VALID,0,VALID,93.2707,VALID,0,VALID,23.4116,VALID,61,VALID,0.344922,
2008-10-04, 01:45:04,VALID,1004.61,VALID,0,VALID,93.4156,VALID,0,VALID,23.4311,VALID,61,VALID,0.244922,
2008-10-04, 01:46:04,VALID,1004.6,VALID,0,VALID,93.4385,VALID,0,VALID,23.4523,VALID,61,VALID,0.251953,
2008-10-04, 01:47:04,VALID,1004.57,VALID,0,VALID,93.4156,VALID,0,VALID,23.4718,VALID,61,VALID,0.249219,
2008-10-04, 01:48:04,VALID,1004.56,VALID,0,VALID,93.3775,VALID,0,VALID,23.4718,VALID,61,VALID,0.279297,
2008-10-04, 01:49:04,VALID,1004.58,VALID,0,VALID,93.3851,VALID,0,VALID,23.4311,VALID,51,VALID,0.312109,
2008-10-04, 01:50:04,VALID,1004.58,VALID,0,VALID,93.3851,VALID,0,VALID,23.4311,VALID,51,VALID,0.294922,
2008-10-04, 01:51:04,VALID,1004.58,VALID,0,VALID,93.4233,VALID,0,VALID,23.4328,VALID,51,VALID,0.429688,
2008-10-04, 01:52:04,VALID,1004.59,VALID,0,VALID,93.4462,VALID,0,VALID,23.4328,VALID,51,VALID,0.417578,
2008-10-04, 01:53:04,VALID,1004.6,VALID,0,VALID,93.469,VALID,0,VALID,23.3921,VALID,51,VALID,0.305078,
2008-10-04, 01:54:04,VALID,1004.57,VALID,0,VALID,93.5606,VALID,0,VALID,23.3921,VALID,52,VALID,0.341016,
2008-10-04, 01:55:04,VALID,1004.56,VALID,0,VALID,93.6445,VALID,0,VALID,23.4311,VALID,52,VALID,0.06875,
2008-10-04, 01:56:04,VALID,1004.54,VALID,0,VALID,93.6979,VALID,0,VALID,23.4311,VALID,52,VALID,0.124609,
2008-10-04, 01:57:04,VALID,1004.55,VALID,0,VALID,93.6598,VALID,0,VALID,23.4523,VALID,52,VALID,0.321484,
2008-10-04, 01:58:04,VALID,1004.54,VALID,0,VALID,93.6826,VALID,0,VALID,23.4505,VALID,52,VALID,0.344141,
2008-10-04, 01:59:04,VALID,1004.55,VALID,0,VALID,93.7589,VALID,0,VALID,23.47,VALID,52,VALID,0.393359,
2008-10-04, 02:00:04,VALID,1004.55,VALID,0,VALID,93.7208,VALID,0,VALID,23.47,VALID,52,VALID,0.341016,
2008-10-04, 02:01:04,VALID,1004.57,VALID,0,VALID,93.6369,VALID,0,VALID,23.5107,VALID,52,VALID,0.337891,
2008-10-04, 02:02:04,VALID,1004.59,VALID,0,VALID,93.6216,VALID,0,VALID,23.4894,VALID,52,VALID,0.349219,
2008-10-04, 02:03:04,VALID,1004.64,VALID,0,VALID,93.6598,VALID,0,VALID,23.47,VALID,52,VALID,0.305078,
2008-10-04, 02:04:04,VALID,1004.63,VALID,0,VALID,93.7132,VALID,0,VALID,23.5089,VALID,52,VALID,0.209766,
2008-10-04, 02:05:04,VALID,1004.63,VALID,0,VALID,93.7055,VALID,0,VALID,23.5071,VALID,52,VALID,0.180078,
2008-10-04, 02:06:04,VALID,1004.63,VALID,0,VALID,93.6292,VALID,0,VALID,23.5284,VALID,52,VALID,0,
2008-10-04, 02:07:04,VALID,1004.64,VALID,0,VALID,93.5758,VALID,0,VALID,23.5284,VALID,52,VALID,0,
2008-10-04, 02:08:04,VALID,1004.64,VALID,0,VALID,93.5682,VALID,0,VALID,23.5284,VALID,52,VALID,0,
2008-10-04, 02:09:04,VALID,1004.64,VALID,0,VALID,93.5453,VALID,0,VALID,23.5284,VALID,52,VALID,0.199219,
2008-10-04, 02:10:04,VALID,1004.65,VALID,0,VALID,93.5682,VALID,0,VALID,23.5266,VALID,52,VALID,0.277734,
2008-10-04, 02:11:04,VALID,1004.61,VALID,0,VALID,93.5301,VALID,0,VALID,23.5478,VALID,52,VALID,0.23125,
2008-10-04, 02:12:04,VALID,1004.61,VALID,0,VALID,93.469,VALID,0,VALID,23.5284,VALID,52,VALID,0.223828,
2008-10-04, 02:13:04,VALID,1004.58,VALID,0,VALID,93.4156,VALID,0,VALID,23.5284,VALID,52,VALID,0.214844,
2008-10-04, 02:14:04,VALID,1004.57,VALID,0,VALID,93.4538,VALID,0,VALID,23.5284,VALID,52,VALID,0.0191406,
2008-10-04, 02:15:04,VALID,1004.55,VALID,0,VALID,93.4614,VALID,0,VALID,23.5089,VALID,52,VALID,0.0921875,
2008-10-04, 02:16:04,VALID,1004.54,VALID,0,VALID,93.5072,VALID,0,VALID,23.5284,VALID,52,VALID,0.0886719,
2008-10-04, 02:17:04,VALID,1004.53,VALID,0,VALID,93.4996,VALID,0,VALID,23.5071,VALID,52,VALID,0,
2008-10-04, 02:18:04,VALID,1004.51,VALID,0,VALID,93.4996,VALID,0,VALID,23.5284,VALID,52,VALID,0,
2008-10-04, 02:19:04,VALID,1004.52,VALID,0,VALID,93.4996,VALID,0,VALID,23.5284,VALID,52,VALID,0,
2008-10-04, 02:20:04,VALID,1004.49,VALID,0,VALID,93.4996,VALID,0,VALID,23.5478,VALID,52,VALID,0,
2008-10-04, 02:21:04,VALID,1004.48,VALID,0,VALID,93.5224,VALID,0,VALID,23.5266,VALID,52,VALID,0,
2008-10-04, 02:22:04,VALID,1004.5,VALID,0,VALID,93.4843,VALID,0,VALID,23.5478,VALID,52,VALID,0,
2008-10-04, 02:23:04,VALID,1004.46,VALID,0,VALID,93.3851,VALID,0,VALID,23.5071,VALID,52,VALID,0,
2008-10-04, 02:24:04,VALID,1004.46,VALID,0,VALID,93.2707,VALID,0,VALID,23.5089,VALID,52,VALID,0,
2008-10-04, 02:25:04,VALID,1004.47,VALID,0,VALID,93.2325,VALID,0,VALID,23.4894,VALID,52,VALID,0,
2008-10-04, 02:26:04,VALID,1004.51,VALID,0,VALID,93.2554,VALID,0,VALID,23.47,VALID,52,VALID,0,
2008-10-04, 02:27:04,VALID,1004.48,VALID,0,VALID,93.2249,VALID,0,VALID,23.4523,VALID,52,VALID,0.408594,
2008-10-04, 02:28:04,VALID,1004.44,VALID,0,VALID,93.202,VALID,0,VALID,23.4116,VALID,52,VALID,0.333203,
2008-10-04, 02:29:04,VALID,1004.45,VALID,0,VALID,93.1944,VALID,0,VALID,23.3921,VALID,52,VALID,0.350391,
2008-10-04, 02:30:04,VALID,1004.47,VALID,0,VALID,93.2478,VALID,0,VALID,23.3727,VALID,52,VALID,0.0933594,
2008-10-04, 02:31:04,VALID,1004.43,VALID,0,VALID,93.3394,VALID,0,VALID,23.332,VALID,52,VALID,0.275,
2008-10-04, 02:32:04,VALID,1004.43,VALID,0,VALID,93.4309,VALID,0,VALID,23.3337,VALID,52,VALID,0.237891,
2008-10-04, 02:33:04,VALID,1004.39,VALID,0,VALID,93.5148,VALID,0,VALID,23.3143,VALID,52,VALID,0.0507813,
2008-10-04, 02:34:04,VALID,1004.41,VALID,0,VALID,93.6369,VALID,0,VALID,23.3143,VALID,52,VALID,0.209375,
2008-10-04, 02:35:04,VALID,1004.39,VALID,0,VALID,93.6979,VALID,0,VALID,23.2948,VALID,52,VALID,0.152734,
2008-10-04, 02:36:04,VALID,1004.36,VALID,0,VALID,93.7208,VALID,0,VALID,23.2754,VALID,52,VALID,0.134766,
2008-10-04, 02:37:04,VALID,1004.34,VALID,0,VALID,93.8123,VALID,0,VALID,23.2966,VALID,52,VALID,0,
2008-10-04, 02:38:04,VALID,1004.31,VALID,0,VALID,93.8657,VALID,0,VALID,23.2559,VALID,52,VALID,0,
2008-10-04, 02:39:04,VALID,1004.3,VALID,0,VALID,94.0107,VALID,0,VALID,23.2771,VALID,52,VALID,0.00898437,
2008-10-04, 02:40:04,VALID,1004.32,VALID,0,VALID,94.1022,VALID,0,VALID,23.2771,VALID,52,VALID,0.183594,
2008-10-04, 02:41:04,VALID,1004.3,VALID,0,VALID,94.0641,VALID,0,VALID,23.2559,VALID,52,VALID,0.232812,
2008-10-04, 02:42:04,VALID,1004.31,VALID,0,VALID,94.1251,VALID,0,VALID,23.2754,VALID,52,VALID,0.264844,
2008-10-04, 02:43:04,VALID,1004.28,VALID,0,VALID,94.1556,VALID,0,VALID,23.2559,VALID,52,VALID,0.350781,
2008-10-04, 02:44:04,VALID,1004.29,VALID,0,VALID,94.1785,VALID,0,VALID,23.2559,VALID,52,VALID,0.225781,
2008-10-04, 02:45:04,VALID,1004.28,VALID,0,VALID,94.1862,VALID,0,VALID,23.2559,VALID,52,VALID,0.350391,
2008-10-04, 02:46:04,VALID,1004.29,VALID,0,VALID,94.2014,VALID,0,VALID,23.2559,VALID,52,VALID,0.351953,
2008-10-04, 02:47:04,VALID,1004.29,VALID,0,VALID,94.1938,VALID,0,VALID,23.2364,VALID,52,VALID,0.371484,
2008-10-04, 02:48:04,VALID,1004.3,VALID,0,VALID,94.1862,VALID,0,VALID,23.217,VALID,52,VALID,0.378125,
2008-10-04, 02:49:04,VALID,1004.31,VALID,0,VALID,94.3311,VALID,0,VALID,23.217,VALID,47,VALID,0.435547,
2008-10-04, 02:50:04,VALID,1004.3,VALID,0,VALID,94.4303,VALID,0,VALID,23.2382,VALID,41,VALID,0.449219,
2008-10-04, 02:51:04,VALID,1004.3,VALID,0,VALID,94.4761,VALID,0,VALID,23.2577,VALID,39,VALID,0.41875,
2008-10-04, 02:52:04,VALID,1004.29,VALID,0,VALID,94.5295,VALID,0,VALID,23.2754,VALID,39,VALID,0.241797,
2008-10-04, 02:53:04,VALID,1004.28,VALID,0,VALID,94.5218,VALID,0,VALID,23.2754,VALID,39,VALID,0.230469,
2008-10-04, 02:54:04,VALID,1004.28,VALID,0,VALID,94.5295,VALID,0,VALID,23.2559,VALID,38,VALID,0.239844,
2008-10-04, 02:55:04,VALID,1004.26,VALID,0,VALID,94.5371,VALID,0,VALID,23.2577,VALID,38,VALID,0.261719,
2008-10-04, 02:56:04,VALID,1004.27,VALID,0,VALID,94.5066,VALID,0,VALID,23.2364,VALID,38,VALID,0.347656,
2008-10-04, 02:57:04,VALID,1004.28,VALID,0,VALID,94.4913,VALID,0,VALID,23.2364,VALID,38,VALID,0.348047,
2008-10-04, 02:58:04,VALID,1004.25,VALID,0,VALID,94.5295,VALID,0,VALID,23.2382,VALID,38,VALID,0.382422,
2008-10-04, 02:59:04,VALID,1004.24,VALID,0,VALID,94.5142,VALID,0,VALID,23.217,VALID,38,VALID,0.392969,
2008-10-04, 03:00:04,VALID,1004.29,VALID,0,VALID,94.5447,VALID,0,VALID,23.2187,VALID,38,VALID,0.333594,
2008-10-04, 03:01:04,VALID,1004.26,VALID,0,VALID,94.5981,VALID,0,VALID,23.1975,VALID,38,VALID,0.258984,
2008-10-04, 03:02:04,VALID,1004.3,VALID,0,VALID,94.5676,VALID,0,VALID,23.178,VALID,38,VALID,0.172266,
2008-10-04, 03:03:04,VALID,1004.3,VALID,0,VALID,94.5676,VALID,0,VALID,23.1993,VALID,38,VALID,0.133594,
2008-10-04, 03:04:04,VALID,1004.28,VALID,0,VALID,94.6057,VALID,0,VALID,23.1798,VALID,38,VALID,0.2875,
2008-10-04, 03:05:04,VALID,1004.29,VALID,0,VALID,94.682,VALID,0,VALID,23.1586,VALID,38,VALID,0.338281,
2008-10-04, 03:06:04,VALID,1004.29,VALID,0,VALID,94.6897,VALID,0,VALID,23.1586,VALID,38,VALID,0.316797,
2008-10-04, 03:07:04,VALID,1004.29,VALID,0,VALID,94.6973,VALID,0.100563,VALID,23.1586,VALID,38,VALID,0.235156,
2008-10-04, 03:08:04,VALID,1004.26,VALID,0,VALID,94.7507,VALID,0,VALID,23.1586,VALID,38,VALID,0,
2008-10-04, 03:09:04,VALID,1004.25,VALID,0,VALID,94.7812,VALID,0,VALID,23.1586,VALID,38,VALID,0,
2008-10-04, 03:10:04,VALID,1004.26,VALID,0,VALID,94.6897,VALID,0,VALID,23.1409,VALID,38,VALID,0,
2008-10-04, 03:11:04,VALID,1004.26,VALID,0,VALID,94.6668,VALID,0,VALID,23.1197,VALID,38,VALID,0,
2008-10-04, 03:12:04,VALID,1004.26,VALID,0,VALID,94.7125,VALID,0,VALID,23.1002,VALID,38,VALID,0,
2008-10-04, 03:13:04,VALID,1004.23,VALID,0,VALID,94.7354,VALID,0,VALID,23.1002,VALID,38,VALID,0.260938,
2008-10-04, 03:14:04,VALID,1004.24,VALID,0,VALID,94.682,VALID,0,VALID,23.1019,VALID,38,VALID,0.2625,
2008-10-04, 03:15:04,VALID,1004.2,VALID,0,VALID,94.7278,VALID,0,VALID,23.0613,VALID,38,VALID,0.294141,
2008-10-04, 03:16:04,VALID,1004.2,VALID,0,VALID,94.8194,VALID,0,VALID,23.0825,VALID,38,VALID,0.207422,
2008-10-04, 03:17:04,VALID,1004.16,VALID,0,VALID,94.8651,VALID,0,VALID,23.0807,VALID,38,VALID,0,
2008-10-04, 03:18:04,VALID,1004.17,VALID,0,VALID,94.8651,VALID,0,VALID,23.1002,VALID,38,VALID,0,
2008-10-04, 03:19:04,VALID,1004.14,VALID,0,VALID,94.8194,VALID,0,VALID,23.1019,VALID,38,VALID,0,
2008-10-04, 03:20:04,VALID,1004.11,VALID,0,VALID,94.8346,VALID,0,VALID,23.1019,VALID,38,VALID,0,
2008-10-04, 03:21:04,VALID,1004.06,VALID,0,VALID,94.8575,VALID,0,VALID,23.1019,VALID,38,VALID,0,
2008-10-04, 03:22:04,VALID,1004.04,VALID,0,VALID,94.9033,VALID,0,VALID,23.1002,VALID,38,VALID,0,
2008-10-04, 03:23:04,VALID,1004.02,VALID,0,VALID,94.9109,VALID,0,VALID,23.0807,VALID,38,VALID,0,
2008-10-04, 03:24:04,VALID,1004.03,VALID,0,VALID,94.9414,VALID,0,VALID,23.1002,VALID,38,VALID,0.410547,
2008-10-04, 03:25:04,VALID,1003.98,VALID,0,VALID,94.9948,VALID,0,VALID,23.1197,VALID,30,VALID,0.551953,
2008-10-04, 03:26:04,VALID,1003.95,VALID,0,VALID,95.0482,VALID,0,VALID,23.1391,VALID,11,VALID,0.542969,
2008-10-04, 03:27:04,VALID,1003.93,VALID,0,VALID,95.0558,VALID,0,VALID,23.1391,VALID,4,VALID,0.426562,
2008-10-04, 03:28:04,VALID,1003.89,VALID,0,VALID,94.9643,VALID,0,VALID,23.1391,VALID,2,VALID,0.49375,
2008-10-04, 03:29:04,VALID,1003.88,VALID,0,VALID,94.8804,VALID,0,VALID,23.1002,VALID,2,VALID,0.331641,
2008-10-04, 03:30:04,VALID,1003.88,VALID,0,VALID,94.8575,VALID,0,VALID,23.1002,VALID,2,VALID,0.314453,
2008-10-04, 03:31:04,VALID,1003.89,VALID,0,VALID,94.7965,VALID,0,VALID,23.0807,VALID,2,VALID,0.285547,
2008-10-04, 03:32:04,VALID,1003.87,VALID,0,VALID,94.7812,VALID,0,VALID,23.063,VALID,2,VALID,0.1625,
2008-10-04, 03:33:04,VALID,1003.85,VALID,0,VALID,94.8041,VALID,0,VALID,23.0224,VALID,2,VALID,0.134766,
2008-10-04, 03:34:04,VALID,1003.86,VALID,0,VALID,94.7812,VALID,0,VALID,23.0241,VALID,2,VALID,0.0882813,
2008-10-04, 03:35:04,VALID,1003.85,VALID,0,VALID,94.8117,VALID,0,VALID,23.0029,VALID,2,VALID,0.225781,
2008-10-04, 03:36:04,VALID,1003.84,VALID,0,VALID,94.888,VALID,0,VALID,23.0241,VALID,2,VALID,0.404687,
2008-10-04, 03:37:04,VALID,1003.84,VALID,0,VALID,94.8728,VALID,0,VALID,23.0046,VALID,2,VALID,0.350391,
2008-10-04, 03:38:04,VALID,1003.89,VALID,0,VALID,94.8499,VALID,0,VALID,23.0046,VALID,2,VALID,0.288672,
2008-10-04, 03:39:04,VALID,1003.89,VALID,0,VALID,94.8728,VALID,0,VALID,22.9852,VALID,2,VALID,0.247266,
2008-10-04, 03:40:04,VALID,1003.89,VALID,0,VALID,94.9262,VALID,0,VALID,22.9657,VALID,2,VALID,0.262109,
2008-10-04, 03:41:04,VALID,1003.91,VALID,0,VALID,95.0024,VALID,0,VALID,22.9852,VALID,2,VALID,0.369531,
2008-10-04, 03:42:04,VALID,1003.96,VALID,0,VALID,94.9796,VALID,0,VALID,22.9852,VALID,2,VALID,0.401953,
2008-10-04, 03:43:04,VALID,1003.95,VALID,0,VALID,94.9185,VALID,0,VALID,22.9445,VALID,2,VALID,0.401953,
2008-10-04, 03:44:04,VALID,1003.98,VALID,0,VALID,94.9033,VALID,0,VALID,22.9251,VALID,2,VALID,0.284766,
2008-10-04, 03:45:04,VALID,1003.99,VALID,0,VALID,94.9262,VALID,0,VALID,22.9056,VALID,2,VALID,0.338672,
2008-10-04, 03:46:04,VALID,1004.01,VALID,0,VALID,95.0406,VALID,0,VALID,22.9251,VALID,2,VALID,0.277734,
2008-10-04, 03:47:04,VALID,1004,VALID,0,VALID,95.1398,VALID,0,VALID,22.964,VALID,2,VALID,0.234375,
2008-10-04, 03:48:04,VALID,1004.03,VALID,0,VALID,95.1016,VALID,0,VALID,22.9834,VALID,2,VALID,0.275391,
2008-10-04, 03:49:04,VALID,1004.04,VALID,0,VALID,95.0177,VALID,0,VALID,22.9852,VALID,2,VALID,0.0828125,
2008-10-04, 03:50:04,VALID,1004.05,VALID,0,VALID,94.9796,VALID,0,VALID,22.9463,VALID,2,VALID,0,